Weather reports worldwide

Advertisment
Seehausen, Germany (10261): temperature & dewpoint: 11.09.2019 23:00:00 - 17.09.2019 23:00:00 (CEST)Seehausen, Germany (10261): temperature 5cm & temperature -5cm: 11.09.2019 23:00:00 - 17.09.2019 23:00:00 (CEST)Seehausen, Germany (10261): temperature -20cm & temperature -100cm: 11.09.2019 23:00:00 - 17.09.2019 23:00:00 (CEST)Seehausen, Germany (10261): wind speed & gusts: 11.09.2019 23:00:00 - 17.09.2019 23:00:00 (CEST)Seehausen, Germany (10261): wind direction: 11.09.2019 23:00:00 - 17.09.2019 23:00:00 (CEST)Seehausen, Germany (10261): reduced air pressure: 11.09.2019 23:00:00 - 17.09.2019 23:00:00 (CEST)Seehausen, Germany (10261): visibility: 11.09.2019 23:00:00 - 17.09.2019 23:00:00 (CEST)Seehausen, Germany (10261): sunshine duration: 11.09.2019 23:00:00 - 17.09.2019 23:00:00 (CEST)Seehausen, Germany (10261): precipitation: 11.09.2019 23:00:00 - 17.09.2019 23:00:00 (CEST)
Date & Time tt [°C] td [°C] tt 5cm [°C] tt -5cm [°C] tt -20cm [°C] tt -100cm [°C] ff [km/h] ff [kn] fx [km/h] fx [kn] dd ppp [hPa] vv [km] sd [min] rr [mm]
17.09.2019 23:00:00 10,0 5,0 8,8 10,6 14,4 17,0 24 13 42 23 W 1016,8 70 0 0,0
17.09.2019 22:00:00 10,3 5,8 9,5 10,7 14,7 17,0 23 12 35 19 W 1015,9 55 0 0,0
17.09.2019 21:00:00 10,3 5,2 9,2 10,9 15,0 17,0 21 12 34 19 W 1015,6 57 0 0,0
17.09.2019 20:00:00 10,9 4,9 9,7 11,6 15,3 17,0 20 11 39 21 W 1015,0 64 3 0,0
17.09.2019 19:00:00 11,1 5,0 10,2 12,6 15,5 17,0 24 13 50 27 WNW 1014,7 70 29 0,0
17.09.2019 18:00:00 13,1 5,1 12,9 13,5 15,6 17,0 32 17 55 30 W 1013,7 31 38 0,0
17.09.2019 17:00:00 13,2 5,8 13,1 13,9 15,7 17,0 37 20 60 32 WNW 1013,5 36 9 0,0
17.09.2019 16:00:00 12,7 8,4 12,3 14,8 15,8 17,0 34 18 65 35 WNW 1013,8 46 21 0,5
17.09.2019 15:00:00 14,0 9,2 14,8 16,1 15,7 17,0 30 16 50 27 W 1012,8 24 27 0,1
17.09.2019 14:00:00 12,4 10,7 12,5 15,7 15,6 17,1 24 13 41 22 WSW 1013,3 18 2 0,3
17.09.2019 13:00:00 11,5 10,3 11,9 14,9 15,5 17,1 23 12 46 25 W 1014,1 13 0 0,6
17.09.2019 12:00:00 13,4 8,1 14,4 15,0 15,4 17,1 24 13 41 22 W 1014,3 44 0 0,1
17.09.2019 11:00:00 13,2 7,9 12,5 16,2 15,2 17,1 29 16 45 24 WNW 1014,5 19 29 0,0
17.09.2019 10:00:00 13,7 6,9 16,1 14,6 15,2 17,1 28 15 41 22 W 1014,5 31 38 0,0
17.09.2019 09:00:00 11,9 7,2 12,9 13,1 15,3 17,1 18 10 29 16 WSW 1014,6 45 9 0,0
17.09.2019 08:00:00 10,1 7,2 10,1 12,7 15,4 17,1 18 10 31 17 WSW 1015,1 35 0 0,0
17.09.2019 07:00:00 10,3 7,4 10,1 12,8 15,5 17,1 18 10 29 16 WSW 1015,3 35 0 0,0
17.09.2019 06:00:00 10,7 7,5 10,3 13,0 15,7 17,1 19 10 30 16 WSW 1015,6 35 0 0,0
17.09.2019 05:00:00 10,9 7,5 10,7 13,2 15,8 17,1 13 7 21 12 WSW 1016,1 36 0 0,0
17.09.2019 04:00:00 10,9 8,0 10,5 13,5 16,0 17,1 15 8 23 12 WSW 1016,4 34 0 0,0
17.09.2019 03:00:00 11,7 8,3 11,2 13,8 16,1 17,1 14 7 19 10 WSW 1016,9 35 0 0,0
17.09.2019 02:00:00 12,1 8,0 11,8 14,0 16,2 17,1 11 6 20 11 WSW 1017,2 42 0 0,0
17.09.2019 01:00:00 12,4 8,9 12,0 14,2 16,4 17,1 11 6 19 10 WSW 1017,4 36 0 0,0
17.09.2019 00:00:00 12,9 8,6 12,6 14,3 16,6 17,1 9 5 16 8 W 1017,7 38 0 0,0
16.09.2019 23:00:00 12,9 7,6 12,2 14,3 16,8 17,1 10 5 16 8 W 1017,7 43 0 0,0
16.09.2019 22:00:00 12,1 7,3 11,5 14,2 17,1 17,1 11 6 17 9 W 1017,8 43 0 0,0
16.09.2019 21:00:00 11,8 7,1 8,8 15,0 17,3 17,1 7 4 12 6 W 1017,8 40 0 0,0
16.09.2019 20:00:00 13,7 7,5 12,0 16,2 17,5 17,1 8 5 24 13 WNW 1017,5 41 0 0,0
16.09.2019 19:00:00 15,8 6,8 15,3 17,4 17,5 17,1 14 8 24 13 NW 1017,3 45 0 0,0
16.09.2019 18:00:00 16,5 7,3 16,8 18,1 17,5 17,1 15 8 27 15 WNW 1017,1 49 0 0,0
16.09.2019 17:00:00 16,7 7,3 17,6 19,3 17,4 17,1 16 9 26 14 WNW 1017,2 45 0 0,0
16.09.2019 16:00:00 17,0 8,0 18,6 19,6 17,2 17,1 16 9 29 15 W 1017,3 50 10 0,0
16.09.2019 15:00:00 16,5 8,7 18,4 19,1 16,9 17,1 15 8 29 15 WSW 1017,8 36 5 0,0
16.09.2019 14:00:00 15,9 7,9 17,4 18,4 16,8 17,1 18 10 26 14 W 1018,1 37 0 0,0
16.09.2019 13:00:00 15,5 8,0 17,4 18,1 16,6 17,2 9 5 21 11 WNW 1018,6 32 6 0,0
16.09.2019 12:00:00 15,6 8,1 16,8 18,5 16,3 17,2 11 6 25 14 WNW 1019,1 34 13 0,0
16.09.2019 11:00:00 15,4 7,9 17,5 17,3 16,1 17,2 13 7 23 12 W 1019,3 32 18 0,0
16.09.2019 10:00:00 15,2 8,4 17,9 16,0 16,0 17,2 10 6 24 13 W 1019,3 29 9 0,0
16.09.2019 09:00:00 13,6 10,3 14,3 14,5 16,0 17,2 11 6 16 8 WSW 1019,5 26 0 0,0
16.09.2019 08:00:00 12,8 10,1 12,9 13,9 16,1 17,2 9 5 14 8 WSW 1019,5 24 0 0,0
16.09.2019 07:00:00 12,4 10,2 12,1 13,7 16,2 17,2 10 6 15 8 WSW 1019,2 23 0 0,0
16.09.2019 06:00:00 12,0 10,4 11,4 13,6 16,4 17,2 10 5 14 7 WSW 1019,3 22 0 0,0
16.09.2019 05:00:00 11,6 10,3 10,9 13,5 16,7 17,2 9 5 15 8 W 1019,6 21 0 0,0
16.09.2019 04:00:00 11,7 10,1 10,0 14,0 16,9 17,2 8 4 16 9 WSW 1019,5 21 0 0,0
16.09.2019 03:00:00 13,2 10,5 12,5 14,8 17,1 17,2 15 8 22 12 W 1019,9 26 0 0,0
16.09.2019 02:00:00 13,4 10,6 12,5 15,0 17,3 17,2 14 8 22 12 W 1019,6 27 0 0,0
16.09.2019 01:00:00 14,0 10,7 13,3 15,6 17,5 17,2 15 8 28 15 W 1019,7 28 0 0,0
16.09.2019 00:00:00 14,9 10,8 14,3 16,3 17,7 17,2 18 10 26 14 W 1019,3 32 0 0,0
15.09.2019 23:00:00 15,3 10,9 15,2 16,8 17,9 17,2 15 8 29 16 W 1018,9 36 0 0,0
15.09.2019 22:00:00 15,7 11,1 15,6 17,3 18,1 17,2 19 10 34 19 WNW 1019,0 46 0 0,0
15.09.2019 21:00:00 15,7 12,2 15,7 17,8 18,2 17,2 23 12 41 22 WNW 1019,0 66 0 0,0
15.09.2019 20:00:00 17,0 14,1 16,3 18,8 18,3 17,2 20 11 46 25 W 1018,4 20 0 0,0
15.09.2019 19:00:00 18,7 13,6 18,8 20,2 18,3 17,3 24 13 44 24 WNW 1018,0 42 0 0,0
15.09.2019 18:00:00 21,8 10,9 21,9 21,3 18,1 17,3 32 18 47 26 WNW 1017,4 20 0 0,0
15.09.2019 17:00:00 23,5 7,2 24,2 22,5 17,7 17,3 27 15 44 24 W 1017,1 45 41 0,0
15.09.2019 16:00:00 23,6 3,9 24,4 23,0 17,2 17,3 23 12 42 23 W 1017,3 38 60 0,0
15.09.2019 15:00:00 23,3 2,3 25,4 22,7 16,6 17,3 24 13 48 26 W 1017,9 51 50 0,0
15.09.2019 14:00:00 23,1 3,8 26,2 22,0 16,1 17,3 31 17 46 25 WSW 1018,8 20 53 0,0
15.09.2019 13:00:00 21,5 4,9 24,2 20,6 15,5 17,3 25 14 38 20 WSW 1019,2 44 57 0,0
15.09.2019 12:00:00 19,1 5,4 20,7 18,4 15,0 17,3 22 12 44 24 W 1019,9 39 35 0,0
15.09.2019 11:00:00 17,7 5,9 19,3 16,6 14,7 17,3 24 13 43 23 W 1020,5 45 55 0,0
15.09.2019 10:00:00 15,8 6,3 17,1 14,0 14,5 17,3 14 8 23 13 SW 1020,8 66 27 0,0
15.09.2019 09:00:00 12,6 5,9 13,0 11,9 14,5 17,3 13 7 27 15 SW 1021,3 65 32 0,0
15.09.2019 08:00:00 11,9 5,5 11,2 10,4 14,7 17,3 15 8 23 12 SW 1021,5 70 27 0,0
15.09.2019 07:00:00 9,4 4,5 6,9 10,0 14,9 17,3 8 4 17 9 SSW 1022,3 65 0 0,0
15.09.2019 06:00:00 8,9 4,1 6,6 10,2 15,2 17,3 9 5 14 8 S 1022,8 44 0 0,0
15.09.2019 05:00:00 6,6 3,5 4,9 10,4 15,6 17,3 6 3 9 5 S 1023,8 66 0 0,0
15.09.2019 04:00:00 7,1 3,4 4,6 10,8 15,9 17,3 6 4 9 5 S 1024,4 70 0 0,0
15.09.2019 03:00:00 6,4 3,3 4,7 11,2 16,2 17,3 6 3 8 4 S 1025,5 70 0 0,0
15.09.2019 02:00:00 6,8 3,4 5,1 11,7 16,6 17,3 7 4 9 5 S 1026,1 40 0 0,0
15.09.2019 01:00:00 6,8 3,4 5,6 12,2 17,0 17,3 5 3 12 6 S 1027,1 70 0 0,0
15.09.2019 00:00:00 7,6 3,9 5,6 12,9 17,5 17,4 3 1 6 3 S 1028,2 70 0 0,0
14.09.2019 23:00:00 8,3 3,9 6,2 13,8 17,9 17,4 3 1 6 4 SW 1029,1 64 0 0,0
14.09.2019 22:00:00 9,6 4,1 7,3 14,8 18,3 17,4 4 2 5 3 WSW 1029,5 70 0 0,0
14.09.2019 21:00:00 11,7 4,4 8,9 16,2 18,7 17,4 5 3 8 5 S 1029,5 68 0 0,0
14.09.2019 20:00:00 14,5 4,5 10,9 18,0 18,9 17,4 5 3 10 5 WSW 1030,3 70 21 0,0
14.09.2019 19:00:00 18,3 4,0 16,8 20,3 18,9 17,4 6 3 15 8 W 1030,1 70 58 0,0
14.09.2019 18:00:00 18,9 2,5 19,6 22,2 18,7 17,4 10 6 15 8 W 1030,4 70 60 0,0
14.09.2019 17:00:00 20,2 3,6 21,2 22,9 18,4 17,4 5 3 20 11 WSW 1031,5 69 60 0,0
14.09.2019 16:00:00 19,3 3,7 20,8 24,1 17,9 17,4 8 4 23 12 WSW 1032,2 58 60 0,0
14.09.2019 15:00:00 19,0 4,3 23,2 22,8 17,3 17,4 9 5 21 12 N 1032,8 49 44 0,0
14.09.2019 14:00:00 17,5 4,1 20,4 22,8 16,7 17,4 8 4 17 9 N 1033,4 70 50 0,0
14.09.2019 13:00:00 17,7 4,5 22,6 22,5 15,9 17,4 10 5 21 12 NW 1034,0 39 60 0,0
14.09.2019 12:00:00 16,4 5,6 20,2 19,6 15,3 17,4 8 4 19 10 NNW 1034,9 54 46 0,0
14.09.2019 11:00:00 16,0 7,0 20,8 17,7 14,8 17,4 7 4 16 8 W 1035,2 57 60 0,0
14.09.2019 10:00:00 14,0 7,4 17,1 14,3 14,7 17,4 5 3 10 5 WNW 1035,2 45 59 0,0
14.09.2019 09:00:00 11,1 7,7 9,9 10,8 14,8 17,4 7 4 11 6 WNW 1035,2 32 60 0,0
14.09.2019 08:00:00 8,0 6,7 6,7 9,8 15,1 17,4 5 3 9 5 W 1035,1 22 32 0,0
14.09.2019 07:00:00 7,1 6,5 4,4 9,7 15,5 17,4 6 3 10 5 W 1034,8 28 0 0,0
14.09.2019 06:00:00 6,5 5,9 3,8 10,0 15,8 17,4 6 4 10 5 W 1034,7 30 0 0,0
14.09.2019 05:00:00 6,4 5,3 4,9 10,6 16,2 17,4 7 4 11 6 W 1034,6 35 0 0,0
14.09.2019 04:00:00 7,9 6,3 6,3 11,3 16,6 17,4 9 5 13 7 W 1034,4 42 0 0,0
14.09.2019 03:00:00 8,7 6,2 7,3 11,8 17,0 17,4 10 5 14 8 W 1034,4 52 0 0,0
14.09.2019 02:00:00 8,9 6,0 6,8 12,4 17,4 17,4 11 6 14 7 W 1034,7 56 0 0,0
14.09.2019 01:00:00 9,9 5,9 7,8 13,3 17,8 17,4 10 6 14 8 W 1034,4 63 0 0,0
14.09.2019 00:00:00 11,1 5,9 8,7 14,2 18,2 17,4 9 5 15 8 W 1033,9 68 0 0,0
13.09.2019 23:00:00 12,9 5,8 11,6 15,1 18,5 17,4 10 5 16 9 W 1033,6 69 0 0,0
13.09.2019 22:00:00 14,0 5,5 12,5 15,9 18,9 17,4 10 5 18 10 WNW 1033,2 70 0 0,0
13.09.2019 21:00:00 15,3 6,1 13,9 17,1 19,2 17,4 14 8 22 12 WNW 1032,8 70 0 0,0
13.09.2019 20:00:00 16,4 6,1 15,1 18,3 19,4 17,4 12 7 24 13 WNW 1031,8 70 0 0,0
13.09.2019 19:00:00 18,1 5,9 17,4 20,0 19,5 17,4 20 11 35 19 NNW 1031,3 70 4 0,0
13.09.2019 18:00:00 19,5 6,2 19,7 21,5 19,5 17,4 24 13 37 20 NW 1030,7 58 48 0,0
13.09.2019 17:00:00 20,3 6,5 21,3 23,0 19,3 17,4 25 14 40 22 NW 1030,4 63 51 0,0
13.09.2019 16:00:00 20,3 8,5 21,3 22,8 19,0 17,4 27 14 38 20 NW 1030,1 40 26 0,0
13.09.2019 15:00:00 20,3 9,2 21,5 23,5 18,6 17,4 26 14 41 22 NNW 1029,8 54 32 0,0
13.09.2019 14:00:00 20,7 10,5 23,5 22,5 18,2 17,4 34 18 45 24 NNW 1029,2 18 28 0,0
13.09.2019 13:00:00 19,1 13,2 20,0 20,8 18,0 17,4 26 14 45 24 NNW 1028,6 70 12 0,0
13.09.2019 12:00:00 18,7 14,9 19,0 20,1 17,7 17,4 32 17 49 26 WNW 1027,6 58 13 0,1
13.09.2019 11:00:00 20,4 14,5 20,9 20,4 17,4 17,4 29 16 42 23 W 1026,5 51 25 0,0
13.09.2019 10:00:00 19,1 14,5 19,6 18,1 17,2 17,4 20 11 35 19 WSW 1026,4 32 0 0,0
13.09.2019 09:00:00 18,4 14,0 18,6 17,0 17,2 17,4 19 10 34 19 WSW 1026,1 37 0 0,0
13.09.2019 08:00:00 18,1 13,5 17,9 16,4 17,2 17,3 20 11 35 19 WSW 1025,6 39 0 0,0
13.09.2019 07:00:00 17,5 13,4 17,0 16,0 17,2 17,3 11 6 26 14 SW 1025,3 33 0 0,0
13.09.2019 06:00:00 17,0 13,0 16,5 15,7 17,3 17,3 11 6 22 12 SW 1025,2 28 0 0,0
13.09.2019 05:00:00 16,8 12,7 15,7 15,6 17,5 17,3 14 7 27 15 SW 1025,2 9 0 0,0
13.09.2019 04:00:00 16,3 12,7 15,8 15,3 17,6 17,3 9 5 21 11 SW 1025,7 23 0 0,0
13.09.2019 03:00:00 16,4 12,5 15,0 15,4 17,9 17,3 13 7 27 15 WSW 1025,9 23 0 0,0
13.09.2019 02:00:00 17,0 12,8 15,6 15,7 18,1 17,3 15 8 24 13 SW 1026,0 22 0 0,0
13.09.2019 01:00:00 17,0 13,7 15,8 15,9 18,4 17,3 13 7 19 11 SSW 1026,0 19 0 0,0
13.09.2019 00:00:00 16,2 13,5 14,3 16,0 18,7 17,3 9 5 14 8 SSW 1026,2 20 0 0,0
12.09.2019 23:00:00 14,8 12,8 12,2 16,6 19,0 17,3 8 4 10 6 SSW 1026,5 24 0 0,0
12.09.2019 22:00:00 15,2 12,4 13,5 17,4 19,4 17,3 5 3 7 4 SSW 1026,7 28 0 0,0
12.09.2019 21:00:00 16,7 12,6 14,2 18,5 19,6 17,3 5 3 8 4 SW 1026,5 30 0 0,0
12.09.2019 20:00:00 19,4 13,0 16,4 20,1 19,8 17,3 5 3 15 8 W 1026,3 39 0 0,0
12.09.2019 19:00:00 21,4 12,9 21,0 21,6 19,8 17,3 12 7 24 13 W 1025,8 39 19 0,0
12.09.2019 18:00:00 21,8 13,0 22,1 22,4 19,7 17,3 8 4 23 13 W 1025,8 38 5 0,0
12.09.2019 17:00:00 22,1 12,9 22,8 23,7 19,5 17,3 17 9 29 16 WSW 1025,9 29 16 0,0
12.09.2019 16:00:00 22,2 12,0 23,5 24,5 19,1 17,3 20 11 31 17 WSW 1026,0 47 29 0,0
12.09.2019 15:00:00 21,9 13,0 24,7 24,7 18,6 17,3 13 7 32 17 SW 1026,3 33 22 0,0
12.09.2019 14:00:00 21,6 12,6 25,3 24,1 18,0 17,3 20 11 32 18 WSW 1026,6 36 25 0,0
12.09.2019 13:00:00 20,0 12,1 22,1 22,5 17,5 17,3 22 12 35 19 WSW 1026,6 39 10 0,0
12.09.2019 12:00:00 20,1 12,9 22,7 21,6 17,0 17,3 16 9 31 17 WSW 1026,8 35 24 0,0
12.09.2019 11:00:00 18,5 13,2 20,0 19,3 16,7 17,3 15 8 30 16 W 1026,3 28 15 0,0
12.09.2019 10:00:00 17,3 13,6 18,1 17,6 16,6 17,3 15 8 31 17 WSW 1026,0 22 7 0,0
12.09.2019 09:00:00 16,3 13,6 16,8 16,2 16,5 17,3 14 8 28 15 WSW 1025,3 15 4 0,0
12.09.2019 08:00:00 15,8 13,6 16,1 15,5 16,5 17,3 12 6 24 13 WSW 1024,6 13 0 0,0
12.09.2019 07:00:00 15,1 13,3 14,6 15,2 16,6 17,3 10 6 18 10 WSW 1024,1 13 0 0,0
12.09.2019 06:00:00 14,6 13,4 14,1 15,1 16,7 17,3 10 5 25 13 WSW 1023,5 10 0 0,0
12.09.2019 05:00:00 14,8 12,8 14,5 15,0 16,9 17,3 14 8 25 14 WSW 1023,3 18 0 0,0
12.09.2019 04:00:00 14,6 12,6 14,4 15,1 17,1 17,3 16 9 31 17 WSW 1023,1 21 0 0,0
12.09.2019 03:00:00 14,8 12,5 14,4 15,4 17,2 17,4 19 10 36 19 WSW 1022,6 32 0 0,0
12.09.2019 02:00:00 14,7 12,4 14,2 15,6 17,4 17,4 19 11 37 20 WSW 1022,2 38 0 0,0
12.09.2019 01:00:00 14,2 12,8 13,8 15,9 17,6 17,4 19 11 38 21 WSW 1022,0 11 0 0,1
12.09.2019 00:00:00 14,6 12,7 14,1 16,3 17,8 17,4 19 10 34 19 SW 1021,7 17 0 0,0
11.09.2019 23:00:00 15,7 11,9 15,3 16,7 18,1 17,4 16 9 40 21 WSW 1021,7 17 0 0,0

tt = temperature
td = dewpoint
tt 5cm = temperature 5cm
tt -5cm = temperature -5cm
tt -20cm = temperature -20cm
tt -100cm = temperature -100cm
ff = wind speed
fx = gusts
dd = wind direction
ppp = reduced air pressure
vv = visibility
sd = sunshine duration
rr = precipitation

Next stations